�������l�o���
Date,Time,MP-1(��Sv/h),MP-2(��Sv/h),MP-3(��Sv/h),MP-4(��Sv/h),MP-5(��Sv/h),MP-6(��Sv/h),MP-7(��Sv/h),MP-8(��Sv/h),����,����(m/s),���J
2020/03/08,00:00,0.690,0.999,0.667,1.212,0.872,0.400,0.696,0.661,��쐼,1.7,��
2020/03/08,00:10,0.694,0.998,0.666,1.212,0.873,0.399,0.695,0.661,�쐼,1.4,��
2020/03/08,00:20,0.692,0.996,0.667,1.212,0.874,0.401,0.695,0.662,��쐼,1.4,��
2020/03/08,00:30,0.690,0.996,0.666,1.212,0.872,0.398,0.694,0.661,��쐼,2.0,��
2020/03/08,00:40,0.691,0.998,0.669,1.212,0.873,0.398,0.695,0.662,��쐼,1.2,��
2020/03/08,00:50,0.690,0.997,0.666,1.210,0.872,0.400,0.694,0.661,��,1.2,��
2020/03/08,01:00,0.691,0.997,0.665,1.212,0.874,0.399,0.694,0.663,��,1.2,��
2020/03/08,01:10,0.690,0.997,0.665,1.212,0.874,0.400,0.695,0.662,��쐼,0.9,��
2020/03/08,01:20,0.691,0.997,0.667,1.213,0.871,0.398,0.694,0.661,��쐼,0.9,��
2020/03/08,01:30,0.691,0.996,0.667,1.212,0.873,0.398,0.695,0.661,�쐼,0.6,��
2020/03/08,01:40,0.691,0.996,0.668,1.211,0.873,0.398,0.694,0.661,�쐼,0.6,��
2020/03/08,01:50,0.691,0.998,0.666,1.214,0.870,0.398,0.696,0.661,-,CALM,��
2020/03/08,02:00,0.693,0.996,0.666,1.213,0.873,0.399,0.695,0.662,�k��,0.8,��
2020/03/08,02:10,0.691,0.996,0.666,1.210,0.873,0.399,0.695,0.661,�k��,1.2,��
2020/03/08,02:20,0.691,0.996,0.665,1.213,0.871,0.399,0.694,0.661,���k��,1.2,��
2020/03/08,02:30,0.693,0.996,0.666,1.211,0.874,0.399,0.696,0.661,�k��,1.7,��
2020/03/08,02:40,0.693,0.997,0.666,1.213,0.871,0.398,0.696,0.663,�k��,2.5,�L
2020/03/08,02:50,0.691,0.995,0.668,1.211,0.874,0.399,0.695,0.663,�k��,2.0,�L
2020/03/08,03:00,0.691,0.998,0.667,1.215,0.874,0.400,0.694,0.663,�k��,2.6,�L
2020/03/08,03:10,0.692,0.996,0.665,1.211,0.873,0.398,0.696,0.661,�k��,2.5,�L
2020/03/08,03:20,0.692,0.994,0.667,1.214,0.873,0.398,0.694,0.663,�k��,2.9,�L
2020/03/08,03:30,0.691,0.997,0.666,1.214,0.871,0.398,0.694,0.661,�k��,3.5,�L
2020/03/08,03:40,0.690,0.996,0.667,1.214,0.872,0.399,0.696,0.661,�k��,4.8,�L
2020/03/08,03:50,0.692,0.994,0.666,1.212,0.875,0.399,0.694,0.662,�k��,5.0,�L
2020/03/08,04:00,0.691,0.996,0.667,1.212,0.873,0.400,0.697,0.660,�k��,5.3,�L
2020/03/08,04:10,0.691,0.996,0.667,1.214,0.870,0.399,0.694,0.661,�k��,4.6,��
2020/03/08,04:20,0.692,0.997,0.666,1.213,0.872,0.400,0.695,0.661,�k��,4.6,��
2020/03/08,04:30,0.691,0.995,0.666,1.213,0.873,0.399,0.695,0.661,�k��,4.5,��
2020/03/08,04:40,0.691,0.997,0.667,1.214,0.872,0.399,0.697,0.662,�k��,4.5,��
2020/03/08,04:50,0.691,0.993,0.665,1.214,0.872,0.398,0.695,0.661,�k��,4.0,��
2020/03/08,05:00,0.690,0.995,0.665,1.210,0.873,0.398,0.694,0.662,�k��,4.5,��
2020/03/08,05:10,0.691,0.995,0.665,1.213,0.873,0.398,0.697,0.661,�k��,4.2,��
2020/03/08,05:20,0.690,0.996,0.665,1.210,0.872,0.398,0.695,0.661,�k��,4.0,��
2020/03/08,05:30,0.691,0.997,0.666,1.213,0.872,0.400,0.696,0.661,�k��,4.3,��
2020/03/08,05:40,0.690,0.996,0.668,1.215,0.873,0.399,0.696,0.663,�k�k��,4.9,��
2020/03/08,05:50,0.691,0.995,0.666,1.213,0.872,0.398,0.694,0.662,�k��,4.4,��
2020/03/08,06:00,0.692,0.993,0.666,1.212,0.869,0.399,0.696,0.662,�k��,4.3,��
2020/03/08,06:10,0.692,0.995,0.664,1.214,0.872,0.399,0.696,0.662,�k��,4.9,�L
2020/03/08,06:20,0.690,0.994,0.665,1.213,0.871,0.399,0.697,0.661,�k��,4.8,�L
2020/03/08,06:30,0.691,0.992,0.665,1.212,0.873,0.400,0.695,0.661,�k��,5.1,�L
2020/03/08,06:40,0.691,0.993,0.665,1.212,0.869,0.400,0.695,0.662,�k��,5.5,�L
2020/03/08,06:50,0.689,0.990,0.664,1.209,0.870,0.399,0.695,0.661,�k��,5.5,�L
2020/03/08,07:00,0.688,0.987,0.663,1.208,0.866,0.399,0.694,0.662,�k��,6.7,�L
2020/03/08,07:10,0.688,0.990,0.665,1.208,0.865,0.400,0.695,0.661,�k��,6.5,�L
2020/03/08,07:20,0.688,0.987,0.663,1.210,0.865,0.400,0.695,0.661,�k��,6.9,�L
2020/03/08,07:30,0.688,0.985,0.663,1.211,0.865,0.399,0.696,0.660,�k��,6.4,�L
2020/03/08,07:40,0.687,0.982,0.661,1.208,0.861,0.398,0.695,0.660,�k��,6.5,�L
2020/03/08,07:50,0.684,0.982,0.661,1.206,0.861,0.401,0.692,0.659,�k��,6.5,�L
2020/03/08,08:00,0.685,0.978,0.660,1.203,0.861,0.398,0.692,0.659,�k��,6.1,�L
2020/03/08,08:10,0.682,0.977,0.659,1.203,0.856,0.399,0.693,0.658,�k��,6.8,�L
2020/03/08,08:20,0.683,0.974,0.659,1.200,0.858,0.398,0.691,0.656,�k��,6.5,�L
2020/03/08,08:30,0.681,0.969,0.657,1.197,0.854,0.397,0.691,0.658,�k��,7.3,�L
2020/03/08,08:40,0.681,0.969,0.656,1.196,0.854,0.398,0.689,0.657,�k��,7.9,�L
2020/03/08,08:50,0.680,0.968,0.656,1.194,0.851,0.398,0.690,0.655,�k��,8.3,�L
2020/03/08,09:00,0.679,0.969,0.655,1.194,0.855,0.398,0.689,0.657,�k��,8.2,�L
2020/03/08,09:10,0.678,0.969,0.654,1.193,0.852,0.399,0.689,0.656,�k��,7.6,�L
2020/03/08,09:20,0.676,0.964,0.655,1.193,0.850,0.397,0.690,0.656,�k��,7.6,�L
2020/03/08,09:30,0.677,0.966,0.654,1.192,0.848,0.397,0.688,0.655,�k�k��,8.0,�L
2020/03/08,09:40,0.675,0.966,0.655,1.194,0.850,0.395,0.689,0.654,�k�k��,7.6,�L
2020/03/08,09:50,0.676,0.964,0.654,1.193,0.849,0.397,0.689,0.656,�k�k��,7.4,�L
2020/03/08,10:00,0.677,0.963,0.655,1.189,0.846,0.397,0.688,0.657,�k�k��,9.2,�L
2020/03/08,10:10,0.674,0.960,0.652,1.188,0.848,0.397,0.687,0.655,�k�k��,9.3,�L
2020/03/08,10:20,0.675,0.960,0.654,1.185,0.846,0.395,0.686,0.657,�k�k��,9.7,�L
2020/03/08,10:30,0.675,0.962,0.652,1.183,0.845,0.394,0.688,0.654,�k�k��,9.0,�L
2020/03/08,10:40,0.675,0.960,0.651,1.185,0.845,0.393,0.688,0.654,�k�k��,9.6,�L
2020/03/08,10:50,0.675,0.963,0.652,1.183,0.844,0.393,0.687,0.658,�k�k��,9.4,�L
2020/03/08,11:00,0.674,0.961,0.650,1.184,0.846,0.394,0.688,0.657,�k�k��,7.6,�L
2020/03/08,11:10,0.674,0.962,0.651,1.186,0.847,0.395,0.688,0.657,�k�k��,6.5,�L
2020/03/08,11:20,0.674,0.962,0.651,1.185,0.845,0.395,0.687,0.655,�k�k��,8.0,�L
2020/03/08,11:30,0.674,0.961,0.651,1.186,0.846,0.394,0.688,0.653,�k,4.4,�L
2020/03/08,11:40,0.673,0.962,0.651,1.185,0.845,0.392,0.686,0.654,�k�k��,7.6,�L
2020/03/08,11:50,0.674,0.960,0.652,1.183,0.845,0.394,0.688,0.655,�k�k��,7.2,�L
2020/03/08,12:00,0.674,0.959,0.649,1.182,0.843,0.392,0.686,0.655,�k�k��,7.1,�L
2020/03/08,12:10,0.672,0.958,0.649,1.180,0.842,0.393,0.687,0.655,�k�k��,6.8,�L
2020/03/08,12:20,0.672,0.957,0.651,1.182,0.844,0.392,0.687,0.653,�k�k��,9.1,�L
2020/03/08,12:30,0.671,0.959,0.650,1.183,0.845,0.394,0.688,0.655,�k�k��,6.9,��
2020/03/08,12:40,0.674,0.959,0.651,1.181,0.843,0.393,0.688,0.655,�k�k��,6.9,��
2020/03/08,12:50,0.673,0.960,0.650,1.181,0.844,0.392,0.688,0.652,�k�k��,7.9,��
2020/03/08,13:00,0.673,0.961,0.651,1.185,0.845,0.392,0.687,0.653,�k�k��,7.5,��
2020/03/08,13:10,0.674,0.959,0.651,1.183,0.846,0.392,0.688,0.655,�k�k��,7.1,��
2020/03/08,13:20,0.673,0.959,0.650,1.184,0.845,0.391,0.685,0.655,�k�k��,7.0,��
2020/03/08,13:30,0.672,0.961,0.650,1.185,0.845,0.393,0.688,0.655,�k�k��,7.1,��
2020/03/08,13:40,0.672,0.964,0.649,1.184,0.843,0.392,0.686,0.655,�k�k��,7.3,��
2020/03/08,13:50,0.673,0.960,0.650,1.182,0.846,0.392,0.686,0.655,�k�k��,6.3,��
2020/03/08,14:00,0.675,0.961,0.651,1.185,0.845,0.392,0.685,0.655,�k�k��,6.2,��
2020/03/08,14:10,0.675,0.962,0.651,1.185,0.846,0.392,0.685,0.652,�k�k��,6.4,�L
2020/03/08,14:20,0.673,0.962,0.650,1.184,0.845,0.392,0.686,0.654,�k�k��,7.5,�L
2020/03/08,14:30,0.675,0.962,0.652,1.182,0.845,0.392,0.686,0.655,�k�k��,7.3,�L
2020/03/08,14:40,0.675,0.963,0.652,1.186,0.844,0.393,0.687,0.653,�k�k��,6.8,�L
2020/03/08,14:50,0.674,0.963,0.650,1.182,0.845,0.392,0.686,0.655,�k�k��,6.8,�L
2020/03/08,15:00,0.672,0.963,0.651,1.185,0.845,0.393,0.686,0.655,�k�k��,6.4,�L
2020/03/08,15:10,0.674,0.965,0.652,1.183,0.846,0.393,0.687,0.654,�k�k��,7.0,�L
2020/03/08,15:20,0.675,0.963,0.650,1.186,0.848,0.393,0.687,0.654,�k�k��,5.7,�L
2020/03/08,15:30,0.674,0.963,0.650,1.185,0.845,0.392,0.686,0.655,�k�k��,6.7,�L
2020/03/08,15:40,0.673,0.962,0.652,1.184,0.846,0.392,0.686,0.654,�k�k��,7.0,�L
2020/03/08,15:50,0.673,0.960,0.651,1.186,0.845,0.393,0.686,0.655,�k�k��,6.9,�L
2020/03/08,16:00,0.673,0.961,0.650,1.183,0.847,0.393,0.685,0.655,�k�k��,7.3,�L
2020/03/08,16:10,0.673,0.962,0.650,1.182,0.846,0.393,0.686,0.654,�k�k��,7.5,��
2020/03/08,16:20,0.675,0.964,0.649,1.185,0.844,0.393,0.686,0.653,�k�k��,7.7,��
2020/03/08,16:30,0.674,0.963,0.650,1.183,0.844,0.392,0.687,0.656,�k�k��,7.2,�L
2020/03/08,16:40,0.674,0.962,0.649,1.183,0.848,0.393,0.687,0.655,�k�k��,7.9,��
2020/03/08,16:50,0.675,0.959,0.651,1.183,0.845,0.391,0.686,0.655,�k��,9.0,��
2020/03/08,17:00,0.674,0.961,0.649,1.184,0.846,0.392,0.687,0.655,�k�k��,7.8,��
2020/03/08,17:10,0.675,0.960,0.650,1.185,0.847,0.392,0.685,0.656,�k�k��,8.2,��
2020/03/08,17:20,0.675,0.963,0.651,1.186,0.845,0.392,0.687,0.656,�k�k��,6.8,��
2020/03/08,17:30,0.676,0.965,0.650,1.185,0.846,0.393,0.687,0.656,�k��,7.8,��
2020/03/08,17:40,0.676,0.962,0.650,1.184,0.847,0.391,0.688,0.654,�k�k��,7.9,��
2020/03/08,17:50,0.673,0.962,0.650,1.189,0.846,0.391,0.688,0.655,�k�k��,8.3,��
2020/03/08,18:00,0.674,0.962,0.652,1.186,0.845,0.392,0.687,0.655,�k�k��,8.2,��
2020/03/08,18:10,0.674,0.962,0.653,1.185,0.845,0.393,0.688,0.656,�k�k��,7.6,��
2020/03/08,18:20,0.675,0.961,0.651,1.186,0.847,0.392,0.688,0.655,�k�k��,7.4,��
2020/03/08,18:30,0.674,0.964,0.652,1.186,0.845,0.392,0.686,0.655,�k�k��,7.0,��
2020/03/08,18:40,0.675,0.961,0.651,1.186,0.846,0.391,0.687,0.656,�k�k��,7.3,��
2020/03/08,18:50,0.676,0.964,0.649,1.185,0.844,0.392,0.688,0.655,�k�k��,8.5,��
2020/03/08,19:00,0.676,0.965,0.650,1.185,0.846,0.393,0.687,0.656,�k�k��,8.7,��
2020/03/08,19:10,0.674,0.965,0.651,1.185,0.849,0.391,0.687,0.654,�k��,6.8,��
2020/03/08,19:20,0.677,0.965,0.650,1.184,0.847,0.392,0.688,0.655,�k��,6.6,��
2020/03/08,19:30,0.676,0.962,0.650,1.185,0.848,0.393,0.688,0.655,�k�k��,6.7,��
2020/03/08,19:40,0.676,0.965,0.652,1.188,0.848,0.392,0.687,0.656,�k�k��,8.3,��
2020/03/08,19:50,0.676,0.964,0.650,1.187,0.848,0.391,0.687,0.657,�k�k��,7.3,��
2020/03/08,20:00,0.674,0.964,0.653,1.188,0.847,0.392,0.688,0.656,�k�k��,7.7,��
2020/03/08,20:10,0.675,0.964,0.650,1.187,0.846,0.392,0.687,0.655,�k�k��,8.4,��
2020/03/08,20:20,0.676,0.960,0.650,1.186,0.849,0.393,0.688,0.656,�k�k��,7.1,��
2020/03/08,20:30,0.674,0.966,0.651,1.189,0.848,0.392,0.688,0.656,�k�k��,7.8,��
2020/03/08,20:40,0.674,0.964,0.651,1.188,0.847,0.392,0.686,0.655,�k�k��,9.1,��
2020/03/08,20:50,0.675,0.963,0.651,1.186,0.846,0.392,0.689,0.654,�k�k��,8.3,�L
2020/03/08,21:00,0.675,0.963,0.651,1.186,0.846,0.393,0.687,0.655,�k�k��,8.0,�L
2020/03/08,21:10,0.675,0.964,0.651,1.185,0.847,0.393,0.689,0.655,�k�k��,8.9,�L
2020/03/08,21:20,0.676,0.963,0.649,1.185,0.848,0.392,0.688,0.654,�k�k��,8.4,�L
2020/03/08,21:30,0.675,0.962,0.652,1.188,0.847,0.393,0.689,0.654,�k�k��,7.8,�L
2020/03/08,21:40,0.676,0.963,0.651,1.189,0.846,0.392,0.688,0.657,�k�k��,7.6,�L
2020/03/08,21:50,0.675,0.963,0.650,1.186,0.846,0.393,0.687,0.655,�k�k��,7.6,��
2020/03/08,22:00,0.677,0.964,0.651,1.185,0.848,0.392,0.686,0.655,�k�k��,8.8,��
2020/03/08,22:10,0.675,0.964,0.650,1.185,0.847,0.392,0.687,0.657,�k�k��,7.8,��
2020/03/08,22:20,0.675,0.963,0.650,1.187,0.847,0.394,0.688,0.655,�k�k��,7.2,��
2020/03/08,22:30,0.676,0.965,0.651,1.188,0.846,0.392,0.688,0.656,�k�k��,8.0,�L
2020/03/08,22:40,0.676,0.963,0.652,1.189,0.846,0.392,0.686,0.655,�k�k��,7.8,��
2020/03/08,22:50,0.675,0.964,0.651,1.187,0.847,0.392,0.687,0.655,�k�k��,8.2,�L
2020/03/08,23:00,0.676,0.963,0.650,1.189,0.846,0.392,0.686,0.655,�k�k��,8.0,�L
2020/03/08,23:10,0.675,0.963,0.651,1.186,0.848,0.392,0.688,0.656,�k�k��,7.2,��
2020/03/08,23:20,0.675,0.963,0.650,1.185,0.847,0.393,0.686,0.655,�k�k��,7.8,��
2020/03/08,23:30,0.676,0.962,0.652,1.186,0.846,0.392,0.689,0.656,�k�k��,7.4,��
2020/03/08,23:40,0.674,0.962,0.651,1.187,0.848,0.393,0.687,0.655,�k�k��,7.6,��
2020/03/08,23:50,0.677,0.962,0.651,1.186,0.848,0.392,0.688,0.655,�k�k��,7.1,��
